COMPLETED DISPATCHED CALLS FOR SERVICE

Welcome to the Jacksonville Sheriff’s Office Completed Dispatched Calls for Service webpage. This page displays calls for service made to the Jacksonville Sheriff's Office that have recently been completed. The data on this page is refreshed automatically.

This information is not intended to be used as official crime data. This program does not provide information about all crimes, and excludes specific incidents such as sexual assaults and child abuse.

Disclaimer: The Jacksonville Sheriff's Office makes every effort to produce and publish current and accurate information. No warranties, expressed or implied, are provided for the data herein, its use, or its interpretation. The services provided are for informational purposes only and should not be relied on for any type of legal action.

Last refreshed 3/1 02:14:40

Incident # Dispatched Block Address Signal Call Description  
202400131737 3-1 00:33 100 32ND ST W 1066 CANCEL
202400131746 3-1 00:31 12600 SALINA DR 76 ASSIST OTHER AGENCY
202400131722 3-1 00:08 13200 ATLANTIC BLVD 64 NOISE COMPLAINT
202400131717 3-1 00:08 5700 TALL PINE LN 64 NOISE COMPLAINT
202400131697 2-29 23:50 COLLINS RD / COLLINS CT 13 SUSPICIOUS PERSON
202400131699 2-29 23:49 4300 VICTOR ST 1066 CANCEL
202400131693 2-29 23:48 13200 AIRCOUPE RD 76 ASSIST OTHER AGENCY
202400131675 2-29 23:47 9700 FAWN BROOK DR 37 UNVERIFIED 911 CALL
202400131533 2-29 23:43 8800 BAYMEADOWS RD 76 ASSIST OTHER AGENCY
202400131686 2-29 23:41 8400 NORMANDY BLVD 37 UNVERIFIED 911 CALL
202400131679 2-29 23:36 6000 YOUNGERMAN CIR 63 DISPUTE
202400131684 2-29 23:35 3700 EMERSON ST 63 DISPUTE
202400131681 2-29 23:27 4500 HUNT ST 13 SUSPICIOUS PERSON
202400131662 2-29 23:19 1900 20TH ST W 63 DISPUTE
202400131669 2-29 23:16 UNIVERSITY BLVD N / MACY AVE 27 MENTALLY ILL PERSON
202400131653 2-29 23:14 100 SOUTHSIDE BLVD 5388 ASSAULT INVOLVING INJURY
202400131654 2-29 23:13 4000 OLD MILL COVE TRL W 22 DOMESTIC
202400131625 2-29 23:10 7700 JASPER AVE 22 DOMESTIC
202400131647 2-29 23:03 11700 NEW KINGS RD 13 SUSPICIOUS PERSON
202400131499 2-29 23:02 1800 HARDEE ST 13 SUSPICIOUS PERSON
202400131651 2-29 23:02 7600 COLLINS RD 13 SUSPICIOUS PERSON
202400131649 2-29 23:02 2400 EDGEWOOD AVE N 27 MENTALLY ILL PERSON
202400131642 2-29 23:02 400 CENTURY 21 DR 61 FIGHT
202400131641 2-29 22:57 400 JACKSON RD 2 22 DOMESTIC DISTURBANCE
202400131608 2-29 22:57 7400 BEACH BLVD 96 ASSIST MOTORIST
202400131602 2-29 22:56 5200 NORMANDY BLVD 64 NOISE COMPLAINT
202400131635 2-29 22:55 6800 COMMONWEALTH AVE 27 MENTALLY ILL PERSON
202400131626 2-29 22:52 ART MUSEUM DR / ATLANTIC BLVD 4 AUTO CRASH
202400131631 2-29 22:47 5900 FT CAROLINE RD 33 DISCHARGING OF FIREARM
202400131617 2-29 22:46 2900 LUCOMA DR 37 UNVERIFIED 911 CALL
202400131591 2-29 22:46 10500 SAN JOSE BLVD 4 AUTO CRASH
202400131612 2-29 22:45 7200 MERRILL RD 63 DISPUTE
202400131621 2-29 22:43 500 WATER ST 2 63 DISPUTE IMPAIRED/INTOXICATED
202400131434 2-29 22:41 3100 9TH ST W 63 DISPUTE
202400131616 2-29 22:40 ARLINGTON EXPY / MATHEWS BRG E 16 ROAD OBSTRUCTION
202400131609 2-29 22:38 4800 GATE PKWY 12 RECKLESS DRIVER
202400131538 2-29 22:33 11400 KALEEL RD 6388 DISPUTE WITH ASSAULT
202400131598 2-29 22:31 1700 DOT ST 13 SUSPICIOUS PERSON
202400131587 2-29 22:29 11400 ELANE DR 13 SUSPICIOUS PERSON
202400131593 2-29 22:27 1200 COLT ST 76 ASSIST OTHER AGENCY
202400131427 2-29 22:27 900 MIKAEL AVE 63 DISPUTE
202400131519 2-29 22:23 6100 COLLINS RD 73 DRUG INVESTIGATION
202400131546 2-29 22:20 6700 WILSON BLVD 86 LOST PROPERTY
202400131490 2-29 22:20 3700 BOWDEN CIR E 63 DISPUTE
202400131582 2-29 22:19 WASHINGTON ST N / ASHLEY ST E 64 NOISE COMPLAINT
202400131579 2-29 22:18 MAIN ST N / 45TH ST E 1050 TRAFFIC STOP
202400131577 2-29 22:17 4900 SUNBEAM RD 60 SUICIDE OR ATTEMPT
202400131531 2-29 22:14 SPRING VIEW RD / SPRING POND LN 64 NOISE COMPLAINT
202400131564 2-29 22:09 9800 ATLANTIC BLVD 0 63 ARMED DISPUTE
202400131542 2-29 22:06 4900 SUNBEAM RD 88J ASSAULT JUST OCCURRED
202400131545 2-29 22:06 1800 JAMES MADISON CT 22 DOMESTIC
202400131553 2-29 22:05 1700 MCCAUL RD 13 SUSPICIOUS PERSON
202400131539 2-29 22:04 BLANDING BLVD / ARGYLE FOREST BLVD 16 ROAD OBSTRUCTION
202400131495 2-29 22:03 JAMMES RD / MORSE AVE 4 AUTO CRASH
202400131555 2-29 22:02 100 46TH ST E 76 ASSIST OTHER AGENCY
202400131494 2-29 22:02 A C SKINNER PKWY / SOUTHSIDE BLVD 33 DISCHARGING OF FIREARM
202400131523 2-29 22:01 8200 PRINCETON SQUARE BLVD E 63 DISPUTE
202400131446 2-29 22:01 11000 HARTS RD 64 NOISE COMPLAINT
202400003708 2-29 22:00 100 U N F DR 9 THEFT
202400131506 2-29 21:58 3000 MARBON ESTATES LN S 2 22 DOMESTIC DISTURBANCE
202400131428 2-29 21:53 US301 ON RAMP / NORMANDY BLVD 4 AUTO CRASH
202400131541 2-29 21:49 10900 BEACH BLVD 62 PERSON CUT
202400131536 2-29 21:45 2600 MARKET ST N 76 ASSIST OTHER AGENCY
202400131534 2-29 21:43 2300 PHILIPS HWY 88P ASSAULT IN PROGRESS
202400131529 2-29 21:42 SPEARING ST / ODESSA ST 1050 TRAFFIC STOP
202400131462 2-29 21:40 HECKSCHER DR / HOUSTON AVE 16 ROAD OBSTRUCTION
202400131524 2-29 21:35 KING ST / WALLER ST 76 ASSIST OTHER AGENCY
202400131518 2-29 21:34 3600 RING LN 63 DISPUTE
202400131517 2-29 21:34 5900 MERRILL RD 22 DOMESTIC
202400131514 2-29 21:32 2900 JUSTINA RD 37 UNVERIFIED 911 CALL
202400131235 2-29 21:31 1400 STATE ST W 33 DISCHARGING OF FIREARM
202400131505 2-29 21:30 ARGYLE FOREST BLVD / WESTPORT RD 13 SUSPICIOUS PERSON
202400131414 2-29 21:30 5000 KERNAN BLVD S 64 NOISE COMPLAINT
202400131501 2-29 21:28 LOSCO RD / HOOD RD S 12 RECKLESS DRIVER
202400131503 2-29 21:28 900 KINGS RD 2 63 DISPUTE IMPAIRED/INTOXICATED
202400131485 2-29 21:26 8900 6TH AVE 6388 DISPUTE WITH ASSAULT
202400131492 2-29 21:25 8500 A C SKINNER PKWY 33 DISCHARGING OF FIREARM
202400131487 2-29 21:21 4200 VICTOR ST 27 MENTALLY ILL PERSON
202400131447 2-29 21:19 AIRPORT RD / I95 S OFF RAMP 4 AUTO CRASH
202400131476 2-29 21:13 8800 CAMSHIRE DR 4 53 TRAFFIC CRASH PERSON INJURED
202400131335 2-29 21:13 6400 BOB-O-LINK RD 13 SUSPICIOUS PERSON
202400131473 2-29 21:12 1100 ELLIS RD S 1066 CANCEL
202400131472 2-29 21:11 200 STATE ST W 63 DISPUTE
202400131456 2-29 21:10 2900 SOUTHSIDE BLVD 96 ASSIST MOTORIST
202400131438 2-29 21:10 2300 SOMERSET RD 76 ASSIST OTHER AGENCY
202400131470 2-29 21:10 2000 EDISON AVE 76 ASSIST OTHER AGENCY
202400131467 2-29 21:08 8700 BEACH BLVD 60 SUICIDE OR ATTEMPT
202400131452 2-29 21:02 ZOO PKWY / IMESON PARK BLVD 11 ABANDONED VEHICLE
202400131448 2-29 21:02 6600 ARROWROOT DR 0 63 ARMED DISPUTE
202482003639 2-29 20:57 200 ATLANTIC BLVD 87 DAMAGED PROPERTY
202400131443 2-29 20:56 12400 CLIFFROSE TRL 2288 DOMESTIC DISPUTE WITH/ASSAULT
202400131426 2-29 20:54 13800 BREAKSEA CT 13 SUSPICIOUS PERSON
202400131387 2-29 20:52 4800 YACHT CLUB RD 22 DOMESTIC
202400131308 2-29 20:51 1300 BROOKWOOD FOREST BLVD 63 DISPUTE
202400131408 2-29 20:48 13400 BEACH BLVD 63 DISPUTE
202400131431 2-29 20:47 2000 12TH ST W 33 DISCHARGING OF FIREARM
202400131419 2-29 20:41 3600 UNIVERSITY BLVD S 60 SUICIDE OR ATTEMPT
202400131420 2-29 20:41 2400 ATLANTIC BLVD 13 SUSPICIOUS PERSON
202400131403 2-29 20:38 7000 103RD ST 2 63 DISPUTE IMPAIRED/INTOXICATED
202400131416 2-29 20:37 100 DAMES POINT BRG S 1066 CANCEL
202400131412 2-29 20:36 8000 103RD ST 9 THEFT
202400131347 2-29 20:35 5500 SILVERDALE AVE 22 DOMESTIC
202400131390 2-29 20:31 14300 BEACH BLVD 4 AUTO CRASH
202400131406 2-29 20:30 6100 YOUNGERMAN CIR 63 DISPUTE
202400131329 2-29 20:29 3500 MARLO ST 19 ANIMAL INVESTIGATION
202400131396 2-29 20:27 11400 SAN JOSE BLVD 3 HIT AND RUN CRASH
202400131399 2-29 20:27 6300 COMMODORE DR 13 SUSPICIOUS PERSON
202400131338 2-29 20:26 4100 BELFORT RD 2 63 DISPUTE IMPAIRED/INTOXICATED
202400131391 2-29 20:21 2800 UNIVERSITY BLVD S 37 UNVERIFIED 911 CALL
202400131332 2-29 20:20 1600 FOURAKER RD 63 DISPUTE
202400131384 2-29 20:18 5100 UNIVERSITY BLVD W 63 DISPUTE
202400131381 2-29 20:17 8700 LEM TURNER RD 73 DRUG INVESTIGATION
202400131385 2-29 20:16 5000 NATHAN HALE RD 60 SUICIDE OR ATTEMPT
202400131322 2-29 20:15 6300 BEACH BLVD 27 MENTALLY ILL PERSON
202400131372 2-29 20:11 1200 MAIN ST N 2 IMPAIRED/INTOXICATED
202400131361 2-29 20:10 5200 FREDERICKSBURG AVE 22 DOMESTIC
202400131371 2-29 20:10 I95 EXPY S / OLDSTAUGEXIT S I95 RP 1050 TRAFFIC STOP
202400131231 2-29 20:09 7700 HARE AVE 73 DRUG INVESTIGATION
202400131367 2-29 20:08 1100 FORSYTH ST W 13 SUSPICIOUS PERSON
202400131357 2-29 20:03 MONUMENT RD / MCCORMICK RD 4 AUTO CRASH
202400131341 2-29 20:03 7000 MAIN ST N 37 UNVERIFIED 911 CALL
202400130943 2-29 20:00 10700 ATLANTIC BLVD 0 56 ARMED JUVENILE
202400131353 2-29 20:00 1600 STAFFORD RD 37 UNVERIFIED 911 CALL
202400131350 2-29 19:58 800 DUNN AVE 9J THEFT JUST OCCURRED
202400131351 2-29 19:56 1900 26TH ST W 0 88P ARMED ASSAULT IN PROGRESS
202400131354 2-29 19:56 7000 COLLINS RD 9P THEFT IN PROGRESS
202400131345 2-29 19:55 3600 EMERSON ST 63 DISPUTE
202400131344 2-29 19:52 6900 MAIN ST N 0 61 FIGHT W/WEAPON
202400131299 2-29 19:49 7600 RAIN FOREST DR N 63 DISPUTE
202400131317 2-29 19:48 11900 BRADY RD 76 ASSIST OTHER AGENCY
202400131312 2-29 19:48 2000 DAVIS ST N 9 THEFT
202400131155 2-29 19:48 1000 EDGEWOOD AVE W 95ID IDENTITY THEFT
202400131333 2-29 19:46 ATLANTIC BLVD / SAN PABLO RD N 4 AUTO CRASH
202400131323 2-29 19:43 2500 MAYPORT RD 4 AUTO CRASH
202400131318 2-29 19:42 6000 BUTLER POINT RD 0 63 ARMED DISPUTE
202400131175 2-29 19:38 2700 CAVENDER CT 27 MENTALLY ILL PERSON
202400131298 2-29 19:37 10300 NAKEMA DR W 13 SUSPICIOUS PERSON
202400131306 2-29 19:33 4800 FLORIDA CLUB CIR 37 UNVERIFIED 911 CALL
202400131251 2-29 19:32 1400 25TH ST W 22 DOMESTIC
202400131286 2-29 19:32 4800 HARLOW BLVD 13 SUSPICIOUS PERSON
202400131163 2-29 19:30 3600 LIGHTVIEW LN 63 DISPUTE
202400131295 2-29 19:29 DOCTOR ROY BAKER ST / DOCTOR ROY BAKER WAY 4 AUTO CRASH
202400131297 2-29 19:27 4000 EMERSON ST 76 ASSIST OTHER AGENCY
202400131073 2-29 19:27 1000 STOCKTON ST 21R BURGLARY RESIDENCE
202400131292 2-29 19:26 4600 MIDDLETON PARK CIR E 4 AUTO CRASH
202400131293 2-29 19:26 2800 PARK ST 13 SUSPICIOUS PERSON
202400131221 2-29 19:26 1500 23RD ST W 22 DOMESTIC
202400131273 2-29 19:22 2000 BLAIR ST 22 DOMESTIC
202400131239 2-29 19:21 IMESON PARK BLVD / BUSCH DR N 12 RECKLESS DRIVER
202400131230 2-29 19:20 3100 HARTLEY RD 63 DISPUTE
202400131263 2-29 19:20 8800 OLD KINGS RD S 95 FRAUD/FORGED (CHECK, ID, RX)
202400131271 2-29 19:19 SOUTHSIDE BLVD / E ATLANTICEXIT S SS RP 4 AUTO CRASH
202400131282 2-29 19:18 14500 DUVAL RD 76 ASSIST OTHER AGENCY
202400131190 2-29 19:18 1500 SEAWOLF TRL 63 DISPUTE
202400131214 2-29 19:18 8600 DIE HARD LN 76 ASSIST OTHER AGENCY
202400131283 2-29 19:16 1300 22ND ST W 4 53 TRAFFIC CRASH PERSON INJURED
202400131258 2-29 19:09 7100 CONANT AVE 76 ASSIST OTHER AGENCY
202400131244 2-29 19:09 6200 DALTON SPRING CT 22 DOMESTIC
202400131098 2-29 19:08 3900 WINDRIDGE CT 63 DISPUTE
202400131205 2-29 19:08 6800 NORMANDY BLVD 9 THEFT
202400131232 2-29 19:08 3600 BOWDEN CIR W 1066 CANCEL
202400131236 2-29 19:07 14500 OLD ST AUGUSTINE RD 4 AUTO CRASH
202400130947 2-29 19:06 MANDARIN MEADOWS DR N / FLYNN RD 63 DISPUTE
202400131223 2-29 19:03 2700 RIVERSIDE AVE 22 DOMESTIC
202400131240 2-29 19:01 2300 WHITE SANDS DR 22 DOMESTIC
202400131255 2-29 19:00 BLANDING BLVD / ARGYLE FOREST BLVD 4 53 TRAFFIC CRASH PERSON INJURED
202400131247 2-29 18:59 1400 LE BARON AVE 27 MENTALLY ILL PERSON
202400131248 2-29 18:58 COLLINS RD / ROOSEVELT BLVD 16 ROAD OBSTRUCTION
202400131202 2-29 18:57 2300 EDGEWOOD AVE W 63 DISPUTE
202400131225 2-29 18:55 ORANGE PICKER RD / FLYNN RD 4 AUTO CRASH
202400131219 2-29 18:54 2400 SCHUMACHER AVE 64 NOISE COMPLAINT
202400131198 2-29 18:54 600 UNION ST W 63 DISPUTE
202400131243 2-29 18:53 HODGES BLVD / ATLANTIC BLVD 16 ROAD OBSTRUCTION
202400131237 2-29 18:53 RIVERSIDE AVE / BARRS ST 16 ROAD OBSTRUCTION
202400131172 2-29 18:51 BROADWAY AVE / MCQUADE ST 56 JUVENILE COMPLAINT
202400131187 2-29 18:50 9000 NORFOLK BLVD 27 MENTALLY ILL PERSON
202400131211 2-29 18:49 4800 LANE AVE S 64 NOISE COMPLAINT
202400131144 2-29 18:48 2100 JAMES HALL DR 76 ASSIST OTHER AGENCY
202400131194 2-29 18:46 2700 STARDUST CT 63 DISPUTE
202400131222 2-29 18:46 11200 BEACH BLVD 4 53 TRAFFIC CRASH PERSON INJURED
202400131203 2-29 18:44 2000 PARK ST 61 FIGHT
202400131200 2-29 18:43 500 MYRTLE AVE N 37 UNVERIFIED 911 CALL
202400131216 2-29 18:43 6100 ARLINGTON EXPY 76 ASSIST OTHER AGENCY
202400131213 2-29 18:42 4100 PHILIPS HWY 76 ASSIST OTHER AGENCY
202400131128 2-29 18:42 7400 LINDA DR 22 DOMESTIC
202400131096 2-29 18:41 8300 FIRETOWER RD 10R VEHICLE THEFT RECOVERY
202400131137 2-29 18:38 9300 103RD ST 14C VANDALISM CONVEYANCE
202400131184 2-29 18:36 4300 RIPKEN CIR E 63 DISPUTE
202400131106 2-29 18:35 4300 PLAZA GATE LN S 22 DOMESTIC
202400131197 2-29 18:35 9400 GILCHRIST CT 27 MENTALLY ILL PERSON
202400131081 2-29 18:35 7200 ARLINGTON EXPY 50 FOUND/ABANDONED PROPERTY
202400131191 2-29 18:35 8800 103RD ST 4 AUTO CRASH
202400131167 2-29 18:34 36TH ST W / MONCRIEF RD 1050 TRAFFIC STOP
202400131154 2-29 18:32 2600 MARKET ST N 22 DOMESTIC
202400131093 2-29 18:31 1000 LA MARCHE DR 19 ANIMAL INVESTIGATION
202400130826 2-29 18:30 5100 VERDIS ST 63 DISPUTE
202400131166 2-29 18:29 10500 NORMANDY BLVD 22 DOMESTIC
202400131055 2-29 18:29 6900 GOLDILOCKS LN 63 DISPUTE
202400131162 2-29 18:28 5300 PHILIPS HWY 4 AUTO CRASH
202400131135 2-29 18:27 11900 BEACH BLVD 21C BURGLARY CONVEYANCE
202400131110 2-29 18:27 9500 BAYMEADOWS RD 63 DISPUTE
202400131118 2-29 18:26 BROADWAY AVE / HURON ST 19 ANIMAL INVESTIGATION
202400131178 2-29 18:25 12800 CITY CENTER BLVD 10J VEHICLE THEFT JUST OCCURRED
202400131063 2-29 18:23 2800 RIPLEY AVE 95 FRAUD/FORGED (CHECK, ID, RX)
202400131157 2-29 18:17 BLANDING BLVD / ARGYLE FOREST BLVD 4 AUTO CRASH
202400131047 2-29 18:17 100 LAVILLA CENTER DR 63 DISPUTE
202400131105 2-29 18:16 3600 RING LN 22 DOMESTIC
202400131146 2-29 18:16 5700 CHERRY LAUREL DR 13 SUSPICIOUS PERSON
202400131004 2-29 18:15 6800 BAMBI LN 9 THEFT
202400131111 2-29 18:15 300 69TH ST W 63 DISPUTE
202400131051 2-29 18:15 400 CENTURY 21 DR 13 SUSPICIOUS PERSON
202400131083 2-29 18:14 1300 DUNN AVE 63 DISPUTE
202400131151 2-29 18:14 5800 ARLINGTON RD 4 AUTO CRASH
202400131150 2-29 18:13 CLEVELAND RD / 45TH ST W 4 AUTO CRASH
202400131088 2-29 18:13 9100 BAYMEADOWS RD 63 DISPUTE
202400131143 2-29 18:10 BEACH BLVD / HODGES BLVD 4 AUTO CRASH
202400131147 2-29 18:09 2900 SPRING PARK RD 8 MISSING PERSON
202400131134 2-29 18:09 HODGES BLVD / BEACH BLVD 16 ROAD OBSTRUCTION
202400131138 2-29 18:08 11000 HARTS RD 8 MISSING PERSON
202400131124 2-29 18:07 7200 POWERS AVE 63 DISPUTE
202400131131 2-29 18:06 I95 N OFF RAMP / BAYMEADOWS RD 96 ASSIST MOTORIST
202400131127 2-29 18:06 4500 SOUTHSIDE BLVD 38 TRAFFIC ASSIGNMENT
202400131049 2-29 18:04 9100 SOUTHWARK DR 63 DISPUTE
202400131113 2-29 18:04 7600 LEM TURNER RD 2288 DOMESTIC DISPUTE WITH/ASSAULT
202400131121 2-29 18:02 8500 SAN JOSE BLVD 4 AUTO CRASH
202400131116 2-29 18:02 8100 BLANDING BLVD 9 THEFT
202400131119 2-29 17:59 10100 GRANITE PL 4 AUTO CRASH
202400131109 2-29 17:57 5100 CEDAR POINT RD 22 DOMESTIC
202400131108 2-29 17:56 9000 ADAMS AVE 76 ASSIST OTHER AGENCY
202400131017 2-29 17:56 5800 MAIN ST N 9 THEFT
202400131100 2-29 17:55 100 FULLER WARREN BRG S 96 ASSIST MOTORIST
202400131101 2-29 17:53 6600 CORPORATE CENTER PKWY 21R BURGLARY RESIDENCE
202400131103 2-29 17:53 3700 ALMEDA ST 76 ASSIST OTHER AGENCY
202400131102 2-29 17:51 1800 HARTRIDGE ST 22 DOMESTIC
202400131070 2-29 17:49 SOUTHSIDE BLVD / TOUCHTON RD 68 CON GAME/FLIM FLAM
202400131064 2-29 17:44 2500 NEW BERLIN RD 0 27 ARMED MENTALLY ILL PERSON
202400131090 2-29 17:43 HAMILTON ST / RAMONA BLVD 22 DOMESTIC
202400131082 2-29 17:41 9700 BAYMEADOWS RD 76 ASSIST OTHER AGENCY
202400130777 2-29 17:40 13700 RICHMOND PARK DR N 95 FRAUD/FORGED (CHECK, ID, RX)
202400131066 2-29 17:38 8200 MONCRIEF-DINSMORE RD 11 ABANDONED VEHICLE
202400131080 2-29 17:37 100 HART BRG N 4 AUTO CRASH
202400131079 2-29 17:35 6000 NEW KINGS RD 3 HIT AND RUN CRASH
202400131038 2-29 17:35 7100 CONANT AVE 76 ASSIST OTHER AGENCY
202400131076 2-29 17:35 103RD ST / BLANDING BLVD 16 ROAD OBSTRUCTION
202400131071 2-29 17:34 5700 HATCHER CT 19 ANIMAL INVESTIGATION
202400131065 2-29 17:33 13000 MAIN ST N 63 DISPUTE
202400131072 2-29 17:33 100 MATHEWS BRG W 87 DAMAGED PROPERTY
202400130985 2-29 17:30 2000 RENTAL CAR LN 10R VEHICLE THEFT RECOVERY
202400130951 2-29 17:27 7100 WILSON BLVD 2288 DOMESTIC DISPUTE WITH/ASSAULT
202400131044 2-29 17:26 3600 UNIVERSITY BLVD S 63 DISPUTE
202400131052 2-29 17:25 4400 SOUTHSIDE BLVD 3 HIT AND RUN CRASH
202400131036 2-29 17:25 KINGS RD / FAIRFAX ST 1050 TRAFFIC STOP
202400131002 2-29 17:23 10900 HARTS RD 2288 DOMESTIC DISPUTE WITH/ASSAULT
202400131039 2-29 17:18 26TH ST W / PEARL ST N 13 SUSPICIOUS PERSON
202400131041 2-29 17:18 8200 NEVADA ST 13 SUSPICIOUS PERSON
202400131040 2-29 17:18 CASSAT AVE / COLLEGE ST 4 AUTO CRASH
202400131032 2-29 17:18 5700 GERANIUM RD 22 DOMESTIC
202400131029 2-29 17:17 500 AIRPORT CENTER DR 63 DISPUTE
202400130930 2-29 17:16 8300 WESTERN WAY 63 DISPUTE
202400130996 2-29 17:12 12200 WATER TUPELO RD 22 DOMESTIC
202400131028 2-29 17:08 MAIN ST N / 21ST ST E 13 SUSPICIOUS PERSON
202400131021 2-29 17:07 5300 BENTPINE COVE RD 3 HIT AND RUN CRASH
202400130990 2-29 17:07 2700 ORANGE PICKER RD 76 ASSIST OTHER AGENCY
202400131014 2-29 17:05 103RD ST / BLANDING BLVD 16 ROAD OBSTRUCTION
202400131016 2-29 17:05 7400 STRATO RD 63 DISPUTE
202400131008 2-29 17:04 ATLANTIC BLVD / LIVE OAK DR 63 DISPUTE
202400130987 2-29 17:03 1300 DUVAL LAKE RD N 63 DISPUTE
202400131010 2-29 16:56 100 MATHEWS BRG W 16 ROAD OBSTRUCTION
202400131011 2-29 16:56 MAIN ST N / EASTPORT RD 4 AUTO CRASH
202400130963 2-29 16:55 I295 S OFF RAMP / 103RD ST 68 CON GAME/FLIM FLAM
202400130615 2-29 16:50 11400 SAN JOSE BLVD 95 FRAUD/FORGED (CHECK, ID, RX)
202400130993 2-29 16:50 4200 PHILIPS HWY 60 SUICIDE OR ATTEMPT
202400130992 2-29 16:49 6400 103RD ST 3 53 HIT AND RUN CRASH W/FIRE
202400130920 2-29 16:47 7800 ECHO SPRINGS RD 9 THEFT
202400130708 2-29 16:46 8000 MACDOUGALL DR E 63 DISPUTE
202400130969 2-29 16:45 7500 ARLINGTON EXPY 13 SUSPICIOUS PERSON
202400130928 2-29 16:43 2900 SPRING PARK RD 21R BURGLARY RESIDENCE
202400130836 2-29 16:43 6400 LONGLEAF BRANCH DR 10R VEHICLE THEFT RECOVERY
202400130981 2-29 16:42 3900 ABBY LN 88J ASSAULT JUST OCCURRED
202400130976 2-29 16:42 WESTPORT RD / CAYUGA TRL S 4 AUTO CRASH
202400130778 2-29 16:41 3800 LOSCO RD 21B BURGLARY BUSINESS
202400130971 2-29 16:40 12200 SAGO AVE 13 SUSPICIOUS PERSON
202400130975 2-29 16:40 8TH ST W / JAMES HALL DR 63 DISPUTE
202400130845 2-29 16:39 9500 ATLANTIC BLVD 63 DISPUTE
202400130974 2-29 16:39 100 HART BRG N 16 ROAD OBSTRUCTION
202400130968 2-29 16:38 11300 ROLLING RIVER BLVD 63 DISPUTE
202400130869 2-29 16:38 4600 ABERDARE AVE N 63 DISPUTE
202400130902 2-29 16:36 7100 BLACHE CT 21R BURGLARY RESIDENCE
202400130967 2-29 16:35 13200 CITY SQUARE DR 9 THEFT
202400130962 2-29 16:34 5900 NORMANDY BLVD 2 63 DISPUTE IMPAIRED/INTOXICATED
202400130857 2-29 16:34 4600 FLYNN AVE 76 ASSIST OTHER AGENCY
202400130961 2-29 16:33 1800 FAYE RD 76 ASSIST OTHER AGENCY
202400130956 2-29 16:31 LIBERTY ST N / DUVAL ST E 13 SUSPICIOUS PERSON
202400130798 2-29 16:30 6000 KENNERLY RD 95ID IDENTITY THEFT
202400130922 2-29 16:28 4100 PHILIPS HWY 63 DISPUTE
202400130750 2-29 16:24 3400 SOUTHSIDE BLVD 73 DRUG INVESTIGATION
202400130942 2-29 16:23 I295 N OFF RAMP / MERRILL RD 4 AUTO CRASH
202400130945 2-29 16:22 3300 BEACH BLVD 3 HIT AND RUN CRASH
202400130900 2-29 16:21 11200 WINDTREE DR E 1066 CANCEL
202400130939 2-29 16:21 10700 ATLANTIC BLVD 0 88 ARMED ASSAULT
202400130941 2-29 16:20 8400 THREE CREEKS BLVD 1066 CANCEL
202400130921 2-29 16:18 14500 OLD ST AUGUSTINE RD 88 ASSAULT
202400130852 2-29 16:17 3100 PHYLLIS ST 63 DISPUTE
202400130927 2-29 16:15 GROTHE ST / WILCOX ST 4 AUTO CRASH
202400130639 2-29 16:14 2600 UNIVERSITY BLVD N 27 MENTALLY ILL PERSON
202400130871 2-29 16:13 10300 SOUTHSIDE BLVD 63 DISPUTE
202400130914 2-29 16:12 8800 LIBERTY RIDGE DR 50 FOUND/ABANDONED PROPERTY
202400130846 2-29 16:07 10900 BAYMEADOWS RD 88J ASSAULT JUST OCCURRED
202400130889 2-29 16:07 BROAD ST N / UNION ST W 1050 TRAFFIC STOP
202400130816 2-29 16:07 4700 SEASCAPE WAY 14C VANDALISM CONVEYANCE
202400130885 2-29 16:06 1600 DUNN AVE 22 DOMESTIC
202400130894 2-29 16:05 1300 26TH ST E 56 JUVENILE COMPLAINT
202400130866 2-29 16:05 7600 103RD ST 63 DISPUTE
202400130873 2-29 16:04 KONA AVE / PECAN ST 0 63 ARMED DISPUTE
202400130761 2-29 16:04 7900 TALLAHASSEE AVE 27 MENTALLY ILL PERSON
202400130893 2-29 16:03 I95 N OFF RAMP / BOWDEN RD 4 AUTO CRASH
202400130819 2-29 16:03 1900 JAMMES RD 63 DISPUTE
202400130867 2-29 16:02 LEM TURNER RD / IDA ST 10 VEHICLE THEFT
202400130881 2-29 16:02 11900 BEACH BLVD 63 DISPUTE
202400130831 2-29 16:00 9700 GATE PKWY N 63 DISPUTE
202400130884 2-29 16:00 ATLANTIC BLVD / ARLINGTON EXPY 4 AUTO CRASH
202400130876 2-29 15:59 2300 SOMERSET RD 0 63 ARMED DISPUTE
202400130878 2-29 15:58 1500 JEFFERSON ST N 27 MENTALLY ILL PERSON
202400130863 2-29 15:58 11100 SAN JOSE BLVD 0 13 ARMED SUSPICIOUS PERSON
202400130865 2-29 15:53 3300 NET CT 57 PERSON CALLING FOR HELP
202400130731 2-29 15:52 5100 BROKEN ARROW DR N 22 DOMESTIC
202400130861 2-29 15:51 4000 JONES BRANCH BLVD 4 AUTO CRASH
202400130860 2-29 15:51 3600 PHILIPS HWY 88P ASSAULT IN PROGRESS
202400130827 2-29 15:50 7400 TRAILS END 63 DISPUTE
202400130855 2-29 15:49 1300 PANGOLA DR 0 13 ARMED SUSPICIOUS PERSON
202400130670 2-29 15:47 4700 JODA LN N 56 JUVENILE COMPLAINT
202400130850 2-29 15:45 11600 BRIAN LAKES DR 60 SUICIDE OR ATTEMPT
202400130847 2-29 15:45 100 DAMES POINT BRG S 3 53 HIT AND RUN CRASH W/FIRE
202400130722 2-29 15:44 8800 LIBERTY RIDGE DR 8 MISSING PERSON
202400130848 2-29 15:44 2300 EDGEWOOD AVE N 60 SUICIDE OR ATTEMPT
202400130843 2-29 15:43 1600 45TH ST W 56 JUVENILE COMPLAINT
202400130837 2-29 15:42 JAMMES RD / 103RD ST 16 ROAD OBSTRUCTION
202400130834 2-29 15:39 14000 BEACH BLVD 13 SUSPICIOUS PERSON
202400130746 2-29 15:39 3900 UNIVERSITY BLVD S 27 MENTALLY ILL PERSON
202400130812 2-29 15:38 600 8TH ST W 63 DISPUTE
202400130781 2-29 15:37 7900 MERRILL RD 63 DISPUTE
202400130842 2-29 15:37 GATE PKWY / BURNT MILL RD 4 AUTO CRASH
202400130805 2-29 15:32 BEACH BLVD / SAN PABLO RD S 1 IMPAIRED/DRUNK DRIVER
202400130815 2-29 15:31 5600 MONCRIEF RD 63 DISPUTE
202400130824 2-29 15:29 2100 SAN MARCO BLVD 13 SUSPICIOUS PERSON
202400130701 2-29 15:27 11800 PULASKI RD 9 THEFT
202400130810 2-29 15:27 3800 REGENT BLVD 4 AUTO CRASH
202400130817 2-29 15:26 2700 PERCY RD 3 HIT AND RUN CRASH
202400130807 2-29 15:25 8600 BEACH BLVD 63 DISPUTE
202400130799 2-29 15:23 10400 AVENUES WALK BLVD 63 DISPUTE
202400130808 2-29 15:23 2200 MAYPORT RD 11 ABANDONED VEHICLE
202400130758 2-29 15:20 5500 ASHLEIGH PARK DR 54 ILLEGALLY PARKED CAR
202400130693 2-29 15:18 500 60TH ST E 19 ANIMAL INVESTIGATION
202400130775 2-29 15:18 45TH ST W / MONCRIEF RD 63 DISPUTE
202400130702 2-29 15:16 9400 ARLINGTON EXPY 9J THEFT JUST OCCURRED
202400130797 2-29 15:16 600 CHAFFEE RD S 87 DAMAGED PROPERTY
202400130792 2-29 15:14 2100 GILMORE ST 14RJ VANDALISM RESIDENCE JUST OCCURRED
202400130790 2-29 15:13 11400 SAN JOSE BLVD 4 AUTO CRASH
202400130794 2-29 15:12 YELLOW BLUFF RD / STARRATT RD 11 ABANDONED VEHICLE
202400130793 2-29 15:12 7300 103RD ST 4 53 TRAFFIC CRASH PERSON INJURED
202400130684 2-29 15:11 11900 BRADY RD 76 ASSIST OTHER AGENCY
202400130773 2-29 15:11 2700 MAYPORT RD 22 DOMESTIC
202400130786 2-29 15:09 1100 GROTHE ST 63 DISPUTE
202400130705 2-29 15:09 2600 PALMDALE ST 22 DOMESTIC
202400130787 2-29 15:09 4600 CAPE ELIZABETH CT E 1066 CANCEL
202482003629 2-29 15:07 TRITON RD / IREX RD 54 ILLEGALLY PARKED CAR
202400130724 2-29 15:05 6500 5TH ST W 95 FRAUD/FORGED (CHECK, ID, RX)
202400130785 2-29 15:05 3500 KERNAN BLVD S 88P ASSAULT IN PROGRESS
202400130673 2-29 15:05 9100 103RD ST 63 DISPUTE
202400130741 2-29 15:04 900 MONUMENT RD 22 DOMESTIC
202400130780 2-29 15:03 CARLEON RD / LEM TURNER RD 3 HIT AND RUN CRASH
202400130759 2-29 14:57 VALLEY RIDGE BLVD EXIT NOCATEE PY RP / NOCATEE PKWY 4 AUTO CRASH
202400130733 2-29 14:57 1700 DAVIS ST N 8 27 MISSING MENTALLY ILL
202400130725 2-29 14:56 I95 N OFF RAMP / EMERSON ST 10R VEHICLE THEFT RECOVERY
202400130760 2-29 14:55 3600 UNIVERSITY BLVD N 4 AUTO CRASH
202400130736 2-29 14:55 2500 LANTANA AVE 37 UNVERIFIED 911 CALL
202400130749 2-29 14:50 1500 PARENTAL HOME RD 52 ILLEGAL DUMPING
202400130743 2-29 14:48 1600 TYLER ST 63 DISPUTE
202400130734 2-29 14:47 3900 VALLEY GARDEN DR W 63 DISPUTE
202400130732 2-29 14:44 2900 RAYFORD ST 0 63 ARMED DISPUTE
202400130728 2-29 14:43 SUNBEAM RD / PHILIPS HWY 4 AUTO CRASH
202400003696 2-29 14:42 100 U N F DR 96 ASSIST MOTORIST
202400130720 2-29 14:41 12600 SNYDER ST 29 WIRE DOWN
202400130572 2-29 14:41 6500 SAN JUAN AVE 63 DISPUTE
202400130610 2-29 14:41 11300 CAMPFIELD CIR 63 DISPUTE
202400130717 2-29 14:41 7900 NORMANDY BLVD 4 AUTO CRASH
202400130713 2-29 14:40 14400 OLD ST AUGUSTINE RD 4 AUTO CRASH
202400130710 2-29 14:38 I295 S OFF RAMP / GATE PKWY 87 DAMAGED PROPERTY
202400130714 2-29 14:38 7700 NORMANDY BLVD 4 AUTO CRASH
202400130703 2-29 14:36 7100 MERRILL RD 68 CON GAME/FLIM FLAM
202400130699 2-29 14:35 1100 LANE AVE S 4 AUTO CRASH
202400130695 2-29 14:33 5700 LUELLA ST 13 SUSPICIOUS PERSON
202400130533 2-29 14:33 4900 MONROE SMITH RD 2288 DOMESTIC DISPUTE WITH/ASSAULT
202400130662 2-29 14:32 4600 SALISBURY RD 37 UNVERIFIED 911 CALL
202400130629 2-29 14:30 700 BENT BAUM RD 76 ASSIST OTHER AGENCY
202400130691 2-29 14:29 STATE ST W / BARNETT ST 3 HIT AND RUN CRASH
202400130609 2-29 14:25 5400 NORMANDY BLVD 63 DISPUTE
202400130472 2-29 14:25 6100 YOUNGERMAN CIR 63 DISPUTE
202400130655 2-29 14:24 1900 CORPORATE SQUARE BLVD 2 63 DISPUTE IMPAIRED/INTOXICATED
202400130664 2-29 14:24 BEAVER ST W / JEFFERSON ST N 63 DISPUTE
202400130649 2-29 14:22 MCCORMICK RD / FT CAROLINE RD 56 JUVENILE COMPLAINT
202400130449 2-29 14:21 11300 ASHLEY MANOR WAY 63 DISPUTE
202400130666 2-29 14:19 FIELDVIEW DR / KENDALL POINTE DR 76 ASSIST OTHER AGENCY
202400130648 2-29 14:19 6300 ROOSEVELT BLVD 9P THEFT IN PROGRESS
202400130663 2-29 14:17 9700 103RD ST 11 ABANDONED VEHICLE
202400130653 2-29 14:15 400 23RD ST W 11 ABANDONED VEHICLE
202400130658 2-29 14:15 5700 PHILIPS HWY 1066 CANCEL
202400003693 2-29 14:14 100 U N F DR 4 AUTO CRASH
202400130647 2-29 14:12 5100 SOUTEL DR 11 ABANDONED VEHICLE
202400130645 2-29 14:12 3900 HEIDI RD W 22 DOMESTIC
202400130635 2-29 14:11 2100 39TH ST W 22 DOMESTIC
202400130622 2-29 14:11 9000 NORFOLK BLVD 27 MENTALLY ILL PERSON
202400130637 2-29 14:10 11600 BRIAN LAKES DR 64 NOISE COMPLAINT
202400130530 2-29 14:09 ATLANTIC BLVD / ARLINGTON EXPY 4 AUTO CRASH
202400130633 2-29 14:07 3400 TURKEY OAKS DR W 16 ROAD OBSTRUCTION
202400130630 2-29 14:06 300 BOWLAN ST 1066 CANCEL
202400130621 2-29 14:04 5900 MERRILL RD 63 DISPUTE
202400130608 2-29 14:04 8600 BISHOPSWOOD DR 63 DISPUTE